Consulta los datos en tiempo real de la estación municipal de Susqueda - Veïnat del Coll
| Hora UTC | 10:00 |
|---|---|
| Temperatura | 25.4 ºC |
| Humedad | 49.0 % |
| Presión | 1026.0 hPa |
| Pluja | 0.0 mm |
| Velocidad viento | 5.4 km/h |
| Dirección viento | N |
| Radiación solar | 744.3 W/m² |
| Temperatura (ºC) | Humedad (%) | Presión (hPa) | Velocidad viento (km/h) | Precipitación (mm) | Radiación solar (W/m²) | |||||||||||||
|---|---|---|---|---|---|---|---|---|---|---|---|---|---|---|---|---|---|---|
| Hora UTC | Aire | Humedad | Presión | Vel. | Dir. | Vel. Max | Dir. | Intent. máx 5 min. | Rad. Sol. | |||||||||
| 00:05 | 19.7 | 66.8 | 1025.2 | 6.7 | SE | 6.7 | SE | 0.0 | 0.1 | |||||||||
| 00:10 | 19.6 | 66.4 | 1025.2 | 5.3 | SSE | 8.8 | SE | 0.0 | 0.1 | |||||||||
| 00:15 | 19.8 | 63.4 | 1025.2 | 3.9 | SSE | 7.1 | SE | 0.0 | 0.2 | |||||||||
| 00:20 | 19.8 | 63.8 | 1025.2 | 3.6 | SSE | 5.6 | SE | 0.0 | 0.1 | |||||||||
| 00:25 | 19.7 | 65.0 | 1025.2 | 4.0 | SSE | 7.1 | SSE | 0.0 | 0.1 | |||||||||
| 00:30 | 19.7 | 64.5 | 1025.2 | 4.1 | SSE | 8.1 | ESE | 0.0 | 0.1 | |||||||||
| 00:35 | 19.7 | 64.8 | 1025.2 | 4.1 | S | 6.0 | SSW | 0.0 | 0.1 | |||||||||
| 00:40 | 19.4 | 66.9 | 1025.2 | 4.3 | SSW | 8.1 | S | 0.0 | 0.1 | |||||||||
| 00:45 | 19.3 | 68.2 | 1025.3 | 3.6 | SSW | 6.0 | SW | 0.0 | 0.1 | |||||||||
| 00:50 | 19.3 | 69.0 | 1025.3 | 3.3 | SSW | 5.6 | SW | 0.0 | 0.1 | |||||||||
| 00:55 | 19.2 | 69.3 | 1025.3 | 3.8 | SSW | 6.7 | SW | 0.0 | 0.1 | |||||||||
| 01:00 | 19.3 | 69.3 | 1025.3 | 3.8 | SSW | 6.7 | SW | 0.0 | 0.1 | |||||||||
| 01:05 | 19.2 | 69.8 | 1025.2 | 4.1 | SW | 6.7 | SSW | 0.0 | 0.1 | |||||||||
| 01:10 | 19.1 | 69.9 | 1025.2 | 4.6 | SSW | 7.1 | S | 0.0 | 0.1 | |||||||||
| 01:15 | 19.1 | 71.2 | 1025.2 | 4.5 | SW | 7.1 | SW | 0.0 | 0.1 | |||||||||
| 01:20 | 19.0 | 73.6 | 1025.2 | 3.7 | SW | 6.7 | SSW | 0.0 | 0.1 | |||||||||
| 01:25 | 18.9 | 74.9 | 1025.2 | 4.5 | SW | 8.5 | SSW | 0.0 | 0.1 | |||||||||
| 01:30 | 18.9 | 75.6 | 1025.2 | 3.5 | SW | 6.4 | SW | 0.0 | 0.1 | |||||||||
| 01:35 | 18.9 | 75.9 | 1025.2 | 3.1 | SW | 6.0 | SW | 0.0 | 0.1 | |||||||||
| 01:40 | 18.8 | 76.1 | 1025.2 | 2.8 | SW | 4.9 | SSW | 0.0 | 0.1 | |||||||||
| 01:45 | 18.7 | 76.4 | 1025.2 | 2.9 | SW | 7.4 | S | 0.0 | 0.1 | |||||||||
| 01:50 | 18.6 | 77.0 | 1025.2 | 3.4 | SSW | 6.4 | SSW | 0.0 | 0.1 | |||||||||
| 01:55 | 18.5 | 77.2 | 1025.2 | 3.2 | SSW | 5.3 | SW | 0.0 | 0.1 | |||||||||
| 02:00 | 18.6 | 76.7 | 1025.2 | 3.9 | SSW | 7.4 | S | 0.0 | 0.1 | |||||||||
| 02:05 | 18.6 | 76.5 | 1025.1 | 3.6 | SSW | 6.7 | SSW | 0.0 | 0.1 | |||||||||
| 02:10 | 18.7 | 76.3 | 1025.1 | 3.3 | SW | 6.0 | SW | 0.0 | 0.1 | |||||||||
| 02:15 | 18.6 | 76.8 | 1025.0 | 3.4 | SW | 6.4 | SW | 0.0 | 0.1 | |||||||||
| 02:20 | 18.6 | 76.8 | 1025.0 | 3.9 | SW | 8.8 | SSW | 0.0 | 0.1 | |||||||||
| 02:25 | 18.6 | 76.5 | 1025.0 | 4.0 | SSW | 9.5 | SW | 0.0 | 0.1 | |||||||||
| 02:30 | 18.7 | 75.9 | 1025.0 | 4.5 | SSW | 9.2 | SW | 0.0 | 0.1 | |||||||||
| 02:35 | 18.8 | 75.0 | 1025.0 | 4.3 | SW | 8.1 | SW | 0.0 | 0.1 | |||||||||
| 02:40 | 18.9 | 74.6 | 1025.0 | 3.7 | SSW | 8.1 | SW | 0.0 | 0.1 | |||||||||
| 02:45 | 19.0 | 74.8 | 1025.0 | 3.9 | SW | 6.7 | SSW | 0.0 | 0.1 | |||||||||
| 02:50 | 18.9 | 75.4 | 1025.0 | 4.2 | SW | 12.4 | SW | 0.0 | 0.1 | |||||||||
| 02:55 | 18.9 | 75.4 | 1025.0 | 4.5 | SW | 9.9 | S | 0.0 | 0.1 | |||||||||
| 03:00 | 18.9 | 75.0 | 1025.0 | 4.2 | SW | 9.9 | SSW | 0.0 | 0.1 | |||||||||
| 03:05 | 19.0 | 74.6 | 1024.9 | 4.2 | SW | 8.5 | W | 0.0 | 0.1 | |||||||||
| 03:10 | 19.0 | 74.4 | 1024.9 | 4.9 | SSW | 10.2 | S | 0.0 | 0.1 | |||||||||
| 03:15 | 19.0 | 74.5 | 1024.9 | 4.4 | SSW | 9.5 | WSW | 0.0 | 0.1 | |||||||||
| 03:20 | 19.0 | 74.7 | 1024.9 | 4.1 | SSW | 9.2 | SSW | 0.0 | 0.1 | |||||||||
| 03:25 | 19.0 | 74.7 | 1024.9 | 4.6 | SSW | 9.2 | SSW | 0.0 | 0.1 | |||||||||
| 03:30 | 18.9 | 75.2 | 1024.9 | 3.9 | SSW | 7.4 | S | 0.0 | 0.1 | |||||||||
| 03:35 | 18.8 | 74.8 | 1024.8 | 4.3 | SSW | 7.1 | SW | 0.0 | 0.1 | |||||||||
| 03:40 | 18.9 | 72.7 | 1024.8 | 3.8 | S | 9.2 | SSW | 0.0 | 0.1 | |||||||||
| 03:45 | 19.2 | 70.1 | 1024.6 | 2.4 | S | 4.9 | SE | 0.0 | 0.1 | |||||||||
| 03:50 | 19.3 | 69.2 | 1024.6 | 3.3 | SSW | 7.1 | SSW | 0.0 | 0.1 | |||||||||
| 03:55 | 19.4 | 68.8 | 1024.6 | 2.5 | SSE | 11.3 | SSW | 0.0 | 0.1 | |||||||||
| 04:00 | 19.4 | 69.1 | 1024.6 | 2.1 | SSE | 9.9 | WSW | 0.0 | 0.1 | |||||||||
| 04:05 | 19.2 | 70.1 | 1024.6 | 2.6 | S | 13.4 | S | 0.0 | 0.1 | |||||||||
| 04:10 | 19.0 | 71.5 | 1024.6 | 2.7 | SSW | 6.4 | S | 0.0 | 0.1 | |||||||||
| 04:15 | 18.8 | 72.1 | 1024.6 | 4.3 | SSW | 11.3 | WSW | 0.0 | 0.1 | |||||||||
| 04:20 | 19.0 | 71.3 | 1024.6 | 3.6 | S | 9.5 | S | 0.0 | 0.2 | |||||||||
| 04:25 | 19.2 | 69.9 | 1024.5 | 1.8 | SSE | 7.4 | SSW | 0.0 | 0.1 | |||||||||
| 04:30 | 19.4 | 69.4 | 1024.5 | 2.5 | S | 7.1 | SSE | 0.0 | 0.1 | |||||||||
| 04:35 | 19.3 | 69.5 | 1024.5 | 2.7 | SSE | 7.1 | S | 0.0 | 0.1 | |||||||||
| 04:40 | 19.3 | 69.6 | 1024.5 | 2.5 | S | 5.6 | SSW | 0.0 | 0.1 | |||||||||
| 04:45 | 19.1 | 70.7 | 1024.5 | 2.1 | S | 5.6 | SSE | 0.0 | 0.1 | |||||||||
| 04:50 | 19.1 | 71.1 | 1024.5 | 2.1 | SSW | 8.8 | S | 0.0 | 0.1 | |||||||||
| 04:55 | 18.9 | 72.0 | 1024.6 | 1.5 | SSW | 6.0 | SSE | 0.0 | 0.2 | |||||||||
| 05:00 | 18.6 | 73.9 | 1024.6 | 2.7 | SSW | 6.4 | WSW | 0.0 | 0.5 | |||||||||
| 05:05 | 18.4 | 75.5 | 1024.6 | 3.2 | SSW | 7.1 | SSW | 0.0 | 1.0 | |||||||||
| 05:10 | 18.6 | 74.8 | 1024.6 | 3.1 | SSW | 7.4 | SSW | 0.0 | 2.0 | |||||||||
| 05:15 | 18.6 | 74.4 | 1024.6 | 2.9 | S | 7.1 | SW | 0.0 | 3.2 | |||||||||
| 05:20 | 18.5 | 74.5 | 1024.6 | 2.4 | SSW | 6.7 | SW | 0.0 | 5.5 | |||||||||
| 05:25 | 18.5 | 74.3 | 1024.7 | 2.4 | SSW | 7.8 | WSW | 0.0 | 11.8 | |||||||||
| 05:30 | 18.5 | 73.7 | 1024.7 | 2.0 | SW | 7.4 | WSW | 0.0 | 22.1 | |||||||||
| 05:35 | 18.8 | 72.8 | 1024.8 | 3.4 | SSW | 9.2 | SSW | 0.0 | 33.8 | |||||||||
| 05:40 | 19.0 | 71.4 | 1024.8 | 4.1 | SSW | 10.2 | WSW | 0.0 | 45.6 | |||||||||
| 05:45 | 19.3 | 69.9 | 1024.9 | 3.5 | S | 8.8 | SSW | 0.0 | 55.2 | |||||||||
| 05:50 | 19.6 | 69.0 | 1024.9 | 2.9 | SSW | 10.2 | WSW | 0.0 | 69.8 | |||||||||
| 05:55 | 19.7 | 68.4 | 1024.9 | 4.4 | SSW | 12.7 | S | 0.0 | 82.6 | |||||||||
| 06:00 | 19.9 | 67.6 | 1024.9 | 4.4 | SSW | 9.9 | SW | 0.0 | 95.1 | |||||||||
| 06:05 | 20.2 | 66.3 | 1025.0 | 3.2 | SSW | 8.1 | WSW | 0.0 | 108.4 | |||||||||
| 06:10 | 20.5 | 65.2 | 1025.0 | 4.5 | SSW | 9.9 | S | 0.0 | 121.7 | |||||||||
| 06:15 | 20.7 | 64.3 | 1025.1 | 4.2 | S | 8.5 | SE | 0.0 | 135.4 | |||||||||
| 06:20 | 20.9 | 63.9 | 1025.1 | 3.7 | S | 11.6 | SW | 0.0 | 149.3 | |||||||||
| 06:25 | 21.1 | 62.9 | 1025.1 | 3.0 | WSW | 9.5 | SW | 0.0 | 163.8 | |||||||||
| 06:30 | 21.3 | 62.7 | 1025.1 | 3.0 | S | 7.8 | SW | 0.0 | 178.7 | |||||||||
| 06:35 | 21.5 | 61.8 | 1025.2 | 3.9 | SSW | 9.9 | WSW | 0.0 | 193.8 | |||||||||
| 06:40 | 21.5 | 61.6 | 1025.2 | 2.6 | W | 7.4 | NW | 0.0 | 209.8 | |||||||||
| 06:45 | 21.8 | 60.6 | 1025.2 | 2.1 | NE | 6.0 | NW | 0.0 | 226.3 | |||||||||
| 06:50 | 22.0 | 60.2 | 1025.2 | 1.0 | SSE | 4.9 | SSE | 0.0 | 242.0 | |||||||||
| 06:55 | 22.1 | 59.5 | 1025.3 | 1.8 | E | 10.9 | NE | 0.0 | 257.7 | |||||||||
| 07:00 | 21.8 | 60.6 | 1025.3 | 5.0 | WSW | 12.7 | SW | 0.0 | 273.4 | |||||||||
| 07:05 | 21.8 | 60.2 | 1025.3 | 1.5 | ESE | 7.4 | SSE | 0.0 | 289.5 | |||||||||
| 07:10 | 22.1 | 60.2 | 1025.3 | 2.0 | SE | 8.1 | SSW | 0.0 | 305.2 | |||||||||
| 07:15 | 22.1 | 60.2 | 1025.3 | 3.9 | SW | 16.2 | SW | 0.0 | 321.3 | |||||||||
| 07:20 | 21.7 | 61.1 | 1025.3 | 3.4 | SSW | 9.5 | WSW | 0.0 | 337.7 | |||||||||
| 07:25 | 21.8 | 60.8 | 1025.5 | 3.8 | S | 10.9 | S | 0.0 | 353.8 | |||||||||
| 07:30 | 22.0 | 60.2 | 1025.5 | 5.0 | S | 10.2 | SE | 0.0 | 369.5 | |||||||||
| 07:35 | 22.2 | 59.5 | 1025.4 | 6.1 | SW | 13.8 | WSW | 0.0 | 384.6 | |||||||||
| 07:40 | 22.4 | 58.4 | 1025.4 | 4.1 | SSW | 12.7 | S | 0.0 | 400.3 | |||||||||
| 07:45 | 22.8 | 57.0 | 1025.4 | 4.0 | SE | 9.9 | S | 0.0 | 415.2 | |||||||||
| 07:50 | 22.7 | 56.8 | 1025.4 | 3.7 | WSW | 10.9 | SW | 0.0 | 430.3 | |||||||||
| 07:55 | 22.4 | 57.2 | 1025.4 | 2.8 | SSW | 12.7 | SSW | 0.0 | 444.8 | |||||||||
| 08:00 | 22.5 | 56.9 | 1025.4 | 4.9 | SW | 12.7 | SW | 0.0 | 458.1 | |||||||||
| 08:05 | 22.4 | 56.6 | 1025.4 | 6.2 | WSW | 19.4 | SW | 0.0 | 472.0 | |||||||||
| 08:10 | 22.6 | 56.4 | 1025.4 | 3.0 | S | 7.4 | WNW | 0.0 | 485.5 | |||||||||
| 08:15 | 22.6 | 56.6 | 1025.4 | 3.8 | W | 10.6 | SSW | 0.0 | 499.8 | |||||||||
| 08:20 | 22.8 | 56.1 | 1025.4 | 3.0 | N | 6.4 | SSE | 0.0 | 513.2 | |||||||||
| 08:25 | 23.3 | 55.1 | 1025.6 | 2.2 | SW | 7.8 | W | 0.0 | 526.3 | |||||||||
| 08:30 | 23.3 | 54.9 | 1025.6 | 2.4 | WSW | 6.4 | SW | 0.0 | 540.0 | |||||||||
| 08:35 | 23.4 | 54.7 | 1025.6 | 2.5 | W | 7.8 | WNW | 0.0 | 553.6 | |||||||||
| 08:40 | 23.3 | 55.1 | 1025.6 | 2.3 | W | 7.8 | W | 0.0 | 566.4 | |||||||||
| 08:45 | 23.2 | 55.1 | 1025.7 | 3.5 | WSW | 9.9 | SSW | 0.0 | 579.2 | |||||||||
| 08:50 | 23.3 | 54.9 | 1025.7 | 3.8 | SW | 8.8 | S | 0.0 | 592.1 | |||||||||
| 08:55 | 23.4 | 53.6 | 1025.8 | 5.5 | SSE | 13.4 | SE | 0.0 | 604.3 | |||||||||
| 09:00 | 23.9 | 52.3 | 1025.8 | 4.2 | SW | 13.1 | WSW | 0.0 | 615.6 | |||||||||
| 09:05 | 24.5 | 51.0 | 1025.8 | 6.8 | SE | 14.5 | S | 0.0 | 627.1 | |||||||||
| 09:10 | 24.7 | 49.6 | 1025.8 | 3.5 | SSW | 11.6 | S | 0.0 | 638.1 | |||||||||
| 09:15 | 24.9 | 50.0 | 1025.8 | 4.1 | NE | 9.9 | NNE | 0.0 | 650.4 | |||||||||
| 09:20 | 24.8 | 50.9 | 1025.8 | 3.4 | ESE | 10.6 | ESE | 0.0 | 662.0 | |||||||||
| 09:25 | 24.9 | 49.4 | 1025.9 | 4.4 | NNW | 16.2 | NNE | 0.0 | 674.5 | |||||||||
| 09:30 | 25.2 | 49.6 | 1025.9 | 5.5 | E | 15.9 | ENE | 0.0 | 684.5 | |||||||||
| 09:35 | 25.4 | 48.9 | 1025.9 | 5.4 | NNE | 13.1 | N | 0.0 | 696.4 | |||||||||
| 09:40 | 25.7 | 48.9 | 1025.9 | 3.2 | NE | 7.8 | E | 0.0 | 704.7 | |||||||||
| 09:45 | 25.6 | 49.2 | 1026.0 | 3.7 | E | 12.0 | ENE | 0.0 | 713.5 | |||||||||
| 09:50 | 25.4 | 49.4 | 1026.0 | 3.5 | E | 13.4 | ENE | 0.0 | 723.9 | |||||||||
| 09:55 | 25.2 | 49.3 | 1026.0 | 3.0 | NNW | 8.5 | N | 0.0 | 735.1 | |||||||||
| 10:00 | 25.4 | 49.0 | 1026.0 | 5.4 | N | 12.7 | NNW | 0.0 | 744.3 | |||||||||
| Máxima | 25.7 | 77.2 | 1026.0 | 6.8 | SE | 19.4 | SW | 0.0 | 744.3 | |||||||||
| Mínima | 18.4 | 48.9 | 1024.5 | |||||||||||||||
| Total | 0.0 | |||||||||||||||||